ENMVJD Weather Reports


time (UTC)temp
C
wind
direction
speed
KPH
gust
KPH
rain 1hr
cm
rain 24hr
cm
rain mn
cm
humidity
%
barometer
mb
20260906094823 22 67 0.0 0.0 0.00 0.00 0.00 91 1006.2
20260906093842 22 67 0.0 0.0 0.00 0.00 0.00 90 1006.4
20260906092825 22 67 0.0 0.0 0.00 0.00 0.00 91 1006.3
20260906091825 22 67 0.0 0.0 0.00 0.00 0.00 91 1006.1
20260906090824 22 67 0.0 0.0 0.00 0.00 0.00 91 1006.0
20260906084840 22 67 0.0 0.0 0.00 0.00 0.00 91 1005.7
20260906083924 22 67 0.0 0.0 0.00 0.00 0.00 90 1005.7
20260906082022 22 67 0.0 0.0 0.00 0.00 0.00 90 1005.7
20260906081023 22 67 0.0 0.0 0.00 0.00 0.00 89 1005.7
20260906080023 22 67 0.0 0.0 0.00 0.00 0.00 89 1005.7
20260906075024 22 67 0.0 0.0 0.00 0.00 0.00 90 1005.5
20260906074025 22 67 0.0 0.0 0.00 0.00 0.00 90 1005.5
20260906073122 22 67 0.0 0.0 0.00 0.00 0.00 90 1005.8
20260906072124 22 67 0.0 0.0 0.00 0.00 0.00 89 1005.7
20260906071124 22 67 0.0 0.0 0.00 0.00 0.00 90 1005.8
20260906070222 22 67 0.0 0.0 0.00 0.00 0.00 89 1005.8
20260906063323 22 67 0.0 0.0 0.00 0.00 0.00 90 1006.1
20260906062323 22 67 0.0 0.0 0.00 0.00 0.00 90 1006.2
20260906061323 22 67 0.0 0.0 0.00 0.00 0.00 90 1006.1
20260906060325 22 67 0.0 0.0 0.00 0.00 0.00 91 1006.2
20260906054323 22 67 0.0 0.0 0.00 0.00 0.00 91 1006.5
20260906053340 22 67 0.0 0.0 0.00 0.00 0.00 91 1006.5
20260906052323 22 67 0.0 0.0 0.00 0.00 0.00 90 1006.6
20260906051422 22 67 0.0 0.0 0.00 0.00 0.00 91 1006.5
20260906050425 22 67 0.0 0.0 0.00 0.00 0.00 89 1006.4
20260906045424 23 67 0.0 0.0 0.00 0.00 0.00 90 1006.6
20260906044422 23 67 0.0 0.0 0.00 0.00 0.00 90 1006.6
20260906043441 23 67 0.0 0.0 0.00 0.00 0.00 89 1006.7
20260906042522 23 67 0.0 0.0 0.00 0.00 0.00 88 1006.9
20260906041621 23 67 0.0 0.0 0.00 0.00 0.00 89 1006.9
20260906040640 23 67 0.0 0.0 0.00 0.00 0.00 89 1006.9
20260906035720 23 67 0.0 0.0 0.00 0.00 0.00 89 1007.0
20260906034718 23 67 0.0 0.0 0.00 0.00 0.00 88 1006.9
20260906033717 23 67 0.0 0.0 0.00 0.00 0.00 88 1007.1
20260906032717 23 67 0.0 0.0 0.00 0.00 0.00 88 1007.1
20260906031815 23 67 0.0 0.0 0.00 0.00 0.00 87 1007.1
20260906030818 23 67 0.0 0.0 0.00 0.00 0.00 87 1007.1
20260906025818 23 67 0.0 0.0 0.00 0.00 0.00 86 1007.3
20260906024817 23 67 0.0 0.0 0.00 0.00 0.00 87 1007.5
20260906023817 23 67 0.0 0.0 0.00 0.00 0.00 85 1007.6
20260906022818 24 67 0.0 0.0 0.00 0.00 0.00 86 1007.6
20260906021832 23 67 0.0 0.0 0.00 0.00 0.00 86 1007.8
20260906020834 23 67 0.0 0.0 0.00 0.00 0.00 85 1007.6
20260906015917 24 67 0.0 0.0 0.00 0.00 0.00 86 1007.6
20260906014919 23 67 0.0 0.0 0.00 0.00 0.00 85 1007.3
20260906013917 24 67 0.0 0.0 0.00 0.00 0.00 84 1007.1
20260906012916 24 67 0.0 0.0 0.00 0.00 0.00 84 1007.0
20260906011917 24 67 0.0 0.0 0.00 0.00 0.00 82 1006.6
20260906010934 24 67 0.0 0.0 0.00 0.00 0.00 82 1006.1
20260906010017 24 67 0.0 0.0 0.00 0.00 0.00 83 1006.1
20260906004115 25 67 0.0 0.0 0.00 0.00 0.00 83 1005.6
20260906002133 24 67 0.0 0.0 0.00 0.00 0.00 84 1005.8
20260906001118 24 67 0.0 0.0 0.00 0.00 0.00 86 1006.0
20260905235118 24 45 0.0 1.6 0.00 0.00 0.00 86 1006.4
20260905234216 25 45 0.0 0.0 0.00 0.00 0.00 84 1006.4
20260905232217 26 90 0.0 1.6 0.00 0.00 0.00 74 1006.0
20260905231316 26 135 0.0 0.0 0.00 0.00 0.00 73 1005.7
20260905225317 26 337 0.0 0.0 0.00 0.00 0.00 71 1005.4
20260905224317 26 337 0.0 0.0 0.00 0.00 0.00 72 1005.5
20260905223317 26 270 0.0 0.0 0.00 0.00 0.00 69 1005.5
20260905220214 36 307 3.2 8.0 0.00 0.00 0.00 49 1005.6
20260905215215 37 337 1.6 3.2 0.00 0.00 0.00 47 1004.8
20260905214214 36 135 0.0 0.0 0.00 0.00 0.00 47 1004.6
20260905212215 37 315 0.0 0.0 0.00 0.00 0.00 47 1004.4
20260905211312 37 270 0.0 1.6 0.00 0.00 0.00 48 1004.8
20260905210313 37 45 0.0 0.0 0.00 0.00 0.00 47 1004.7
20260905205314 37 147 0.0 0.0 0.00 0.00 0.00 47 1004.8
20260905204413 37 252 0.0 1.6 0.00 0.00 0.00 47 1004.8
20260905203432 37 157 0.0 0.0 0.00 0.00 0.00 48 1004.8
20260905201431 37 182 0.0 0.0 0.00 0.00 0.00 50 1004.9
20260905201314 37 157 0.0 0.0 0.00 0.00 0.00 49 1004.8
20260905200313 37 360 0.0 0.0 0.00 0.00 0.00 48 1005.0
20260905195313 37 337 0.0 0.0 0.00 0.00 0.00 49 1005.2
20260905193413 36 162 0.0 1.6 0.00 0.00 0.00 50 1005.3
20260905192513 37 225 0.0 4.8 0.00 0.00 0.00 51 1005.4
20260905191515 36 308 1.6 3.2 0.00 0.00 0.00 50 1005.6
20260905190530 36 219 0.0 1.6 0.00 0.00 0.00 53 1005.7
20260905185530 35 345 0.0 0.0 0.00 0.00 0.00 52 1005.7
20260905183512 35 197 0.0 3.2 0.00 0.00 0.00 53 1006.1
20260905182529 36 40 1.6 3.2 0.00 0.00 0.00 52 1006.4
20260905181514 35 225 0.0 0.0 0.00 0.00 0.00 54 1006.5
20260905180529 35 225 0.0 1.6 0.00 0.00 0.00 53 1006.7
20260905175613 35 225 1.6 3.2 0.00 0.00 0.00 53 1006.7
20260905174612 35 269 1.6 4.8 0.00 0.00 0.00 53 1007.1
20260905173614 35 64 1.6 3.2 0.00 0.00 0.00 56 1007.1
20260905172616 35 135 1.6 3.2 0.00 0.00 0.00 55 1007.2
20260905171712 35 146 3.2 8.0 0.00 0.00 0.00 56 1007.5
20260905170731 34 135 0.0 3.2 0.00 0.00 0.00 55 1007.5
20260905165829 34 90 0.0 0.0 0.00 0.00 0.00 57 1007.6
20260905164828 34 90 0.0 0.0 0.00 0.00 0.00 58 1007.8
20260905163814 33 308 1.6 4.8 0.00 0.00 0.00 58 1008.0
20260905162912 33 135 0.0 0.0 0.00 0.00 0.00 59 1008.3
20260905161914 34 203 1.6 6.4 0.00 0.00 0.00 58 1008.5
20260905161013 33 5 0.0 0.0 0.00 0.00 0.00 58 1008.5
20260905160030 34 174 0.0 0.0 0.00 0.00 0.00 60 1008.6
20260905155112 34 270 0.0 1.6 0.00 0.00 0.00 62 1008.7
20260905153113 33 76 0.0 1.6 0.00 0.00 0.00 64 1008.8
20260905153016 33 157 0.0 0.0 0.00 0.00 0.00 64 1008.9
20260905152014 33 157 0.0 3.2 0.00 0.00 0.00 64 1008.7
20260905151012 32 22 0.0 1.6 0.00 0.00 0.00 67 1008.9
20260905150015 32 314 1.6 4.8 0.00 0.00 0.00 67 1009.0
20260905143128 31 135 0.0 0.0 0.00 0.00 0.00 72 1009.2
20260905141312 30 135 0.0 3.2 0.00 0.00 0.00 75 1009.4
20260905135413 29 315 0.0 0.0 0.00 0.00 0.00 78 1009.5
20260905134429 28 315 0.0 0.0 0.00 0.00 0.00 84 1009.5
20260905133513 27 140 0.0 0.0 0.00 0.00 0.00 88 1009.5
20260905132528 27 112 0.0 0.0 0.00 0.00 0.00 89 1009.5
20260905132414 26 112 0.0 0.0 0.00 0.00 0.00 90 1009.5
20260905131414 26 111 0.0 1.6 0.00 0.00 0.00 93 1009.6
20260905125429 25 337 0.0 0.0 0.00 0.00 0.00 99 1009.8
20260905123528 25 315 0.0 0.0 0.00 0.00 0.00 100 1009.6
20260905121613 23 315 0.0 0.0 0.00 0.00 0.00 100 1009.4
20260905121512 23 315 0.0 0.0 0.00 0.00 0.00 100 1009.4
20260905115611 23 315 0.0 0.0 0.00 0.00 0.00 100 1009.3
20260905114627 22 315 0.0 0.0 0.00 0.00 0.00 100 1009.5
20260905113714 22 315 0.0 0.0 0.00 0.00 0.00 99 1009.4
20260905111815 22 315 0.0 0.0 0.00 0.00 0.00 99 1009.3
20260905110829 22 315 0.0 0.0 0.00 0.00 0.00 98 1009.2
20260905104912 22 315 0.0 0.0 0.00 0.00 0.00 99 1008.9
20260905102914 22 315 0.0 0.0 0.00 0.00 0.00 97 1008.8
20260905101912 22 315 0.0 0.0 0.00 0.00 0.00 97 1008.8
20260905100012 22 315 0.0 0.0 0.00 0.00 0.00 98 1008.6